Retour au catalogue

COSMOS 1692

ActifNavigationPO
NORAD 16140·PAYLOAD·🇷🇺 Russia

Lancé Oct 9, 1985 depuis Plesetsk Cosmodrome

Loading…

Prochains Passages (prochaines 24 heures)

TLE

FraisSource: Space-Track

Époque: Sep 14, 2026, 05:19 UTC

1 16140U 85094C   26257.22214486  .00000010  00000-0 -57565-5 0  9994
2 16140  82.6052 173.5603 0017898 160.5877 353.1932 12.64914780889631

Suivez COSMOS 1692 en temps réel avec AllMySat

Download on the App Store